User: anonymous   Login
Location: Theydon Bois
(51.6750°N, 0.1050°E)
Time: 12:35:59
(UTC+01:00)
Language:

Cosmos 923 Rocket - Orbit

View from above orbital plane
View from above orbital plane
View from above satellite
View from above satellite

Ground track
Ground track

The orbit data is extracted from the following two-line orbital elements,

1 10121U 77059B   17290.09017146  .00000047  00000-0  25138-4 0  9994
2 10121  74.0459 268.0547 0019954 232.3950 127.5392 14.35835390107356
Epoch (UTC): 17 October 2017 02:09:50
Eccentricity: 0.0019954
inclination: 74.0459°
perigee height: 758 km
apogee height: 786 km
right ascension of ascending node: 268.0547°
argument of perigee: 232.3950°
revolutions per day: 14.35835390
mean anomaly at epoch: 127.5392°
orbit number at epoch: 10735

The dashed part of the orbit path shows where the satellite is in the earth's shadow,  

DLR